Volver al catálogo

SL-12 R/B(2)

ActivoHEO
NORAD 27404·ROCKET BODY·🇷🇺 Russia

Lanzado Mar 30, 2002 desde Baikonur Cosmodrome

Loading…

Próximos Pases (próximas 24 horas)

TLE

ActualizadoSource: Space-Track

Época: Sep 14, 2026, 13:33 UTC

1 27404U 02016B   26257.56486949 -.00000127  00000-0  00000-0 0  9990
2 27404  25.4336 311.8628 6224966 186.0772 159.5923  2.06290510184357

Sigue SL-12 R/B(2) en tiempo real con AllMySat

Download on the App Store